Screenshot 2020-03-10 at 16.31.56

Aviation Academy

Online Aviation Academy is a modern learning system, bundled with key enterprise functionality ranging from skill-gap analysis and branch management to tailor-made reports. Our unique TCExam is a system for electronic exams (also know as CBA – Computer-Based Assessment, CBT – Computer-Based Testing or e-exam) that enables educators and trainers to  deliver, and report on quizzes, tests and exams.

Koos Myburgh’s book has become a popular training tool for many helicopter pilots starting out on their aviation path. The book is detailed and informative.

About the author

He joined the South African Air Force as a pupil pilot in 1979. Completed training on Harvards and the Alouette III; received his Wings in 1981.
During his 18 year Air Force career he also flew the Puma, Oryx (Super Puma) and the Dauphin. He gave instruction on all the types. He qualified as a NVIS instructor, as well.
After his resignation, he was employed as CFI at Helicopters Unlimited and later as Director Training at the Starlite Aviation Group.
Since his qualification as Instructor during 1988, he gathered 8000 hours of instruction and a total of 12600 hours.
He holds ratings on 32 types/variants of aircraft and was appointed as a SACAA Designated Flight Examiner in 2012.

ONLINE LEARNING

Don’t just read about it, Learn about it…

Let us help you reach the sky.

Durban FALE METAR & TAF

FALE 230700Z 03013KT 9999 SCT014 BKN018 24/20 Q1019 NOSIG

TAF FALE 230400Z 2306/2412 02005KT 9999 SCT025 TX27/2312Z TN18/2404Z FM230800 04018KT CAVOK BECMG 2318/2320 01008KT BKN025 FM240900 04015KT CAVOK

George FAGG METAR & TAF

FAGG 230719Z 22016KT CAVOK 20/16 Q1013

TAF FAGG 230400Z 2306/2406 30010KT 9999 BKN020 TX23/2312Z TN14/2406Z FM230700 25013KT 9999 SCT035 FM231600 22010KT 9999 BKN012 PROB30 TEMPO 2321/2405 0500 FG BKN003

error: NO! Content is protected !!
Scroll to Top